Weather in Novoklenskoye

Russia / Tambov Oblast     53°12′08″N   40°14′09″E
temp.,
°C
wind,
m/s
gust,
m/s
humid.,
%
clouds,
%
prec.,
mm/h
press.,
hPa
HPBL,
m
27 february, sat
sat2700:00+1w6149290 0.0 1006424
03:000w7149276 0.0 1005623
06:000wnw7149168 0.0 1004753
09:00+1wnw8159082 0.0 1004949
12:000nw91587100 0.2 1005995
15:00−4nnw7148576 0.2 1008680
18:00−7nnw4119120 0.0 1010423
21:00−8nnw399411 0.0 1012250
28 february, sun
sun2800:00−10nnw38950 0.0 1013209
03:00−11nnw35950 0.0 1015133
06:00−11nnw249516 0.0 101589
09:00−10nnw359539 0.0 1016227
12:00−8nw349393 0.0 1016351
15:00−6nw359296 0.1 1016415
18:00−7nnw2295100 0.0 101731
21:00−9n239696 0.1 101940
1 march, mon
mon100:00−8ne119599 0.1 102021
03:00−7nw1196100 0.1 102221
06:00−9nw229674 0.0 102321
09:00−8nw119667 0.1 102428
12:00−5wsw129281 0.0 1025220
15:00−4wsw249584 0.1 1025277
18:00−5wsw349478 0.0 102474
21:00−6wsw479576 0.0 1023126
2 march, tue
tue200:00−4wsw599492 0.0 1021253
03:00−3wsw7149496 0.1 1018420
06:00−1wsw71493100 0.1 1014608
09:00+1w71493100 0.1 1011772
12:00+1wnw71399100 0.4 1009637
15:00+1nw61297100 0.6 1008738
18:00−1nw5138999 0.2 1009645
21:00−1nw6149293 0.3 1011743
3 march, wed
wed300:00−2nw71491100 0.1 1011704
03:00−3nw6129598 0.3 1012653
06:00−4nnw8149199 0.4 1013775
09:00−4nnw6129599 0.6 10151015
12:00−3nnw81287100 0.2 1017867
15:00−2nw6118698 0.3 1018840
18:00−2nw4118894 0.1 1018526
21:00−5nw4109276 0.1 1020243